Weather History for KISP - January, 2014

Change the Weather History Date:

Tuesday, January 14, 2014

  Actual Average Record
Temperature  
Mean Temperature 44 °F 30 °F  
Max Temperature 49 °F 38 °F 67 °F (1995)
Min Temperature 39 °F 23 °F -4 °F (1988)
Degree Days  
Heating Degree Days 21 35  
Month to date heating degree days 501 478  
Since 1 July heating degree days 2323 2405  
Cooling Degree Days 0 0  
Month to date cooling degree days 0 0  
Year to date cooling degree days 0 0  
Moisture  
Dew Point 43 °F    
Average Humidity 85    
Maximum Humidity 93    
Minimum Humidity 76    
Precipitation  
Precipitation 0.79 in 0.13 in 1.33 in (2006)
Month to date precipitation 3.23 1.70  
Year to date precipitation 3.23 1.70  
Snow  
Snow 0.00 in 0.20 in 1.20 in (2004)
Month to date snowfall 11.2 3.1  
Since 1 July snowfall 19.6 9.0  
Snow Depth 0.00 in    
Sea Level Pressure  
Sea Level Pressure 29.77 in    
Wind  
Wind Speed 8 mph (SW)    
Max Wind Speed 14 mph    
Max Gust Speed 21 mph    
Visibility 5 miles    
Events Rain    
T = Trace of Precipitation, MM = Missing Value Source: NWS Daily Summary

Daily Weather History Graph

Daily Weather History Graph

Search for Another Location

Airport or City:

Trip Planner

Search our weather history database for the weather conditions in past years. The results will help you decide how hot, cold, wet, or windy it might be!

Date:

Astronomy

Jan. 14, 2014 Rise Set
Actual Time 7:14 AM EST 4:48 PM EST
Civil Twilight 6:44 AM EST 5:18 PM EST
Nautical Twilight 6:10 AM EST 5:52 PM EST
Astronomical Twilight 5:38 AM EST 6:25 PM EST
Moon 3:51 PM EST (1/14) 5:47 AM EST (1/14)
Length of Visible Light 10h 33m
Length of Day
9h 33m
Waxing Gibbous, 98% of the Moon is Illuminated
Jan 14
Waxing Gibbous
Jan 15
Full
Jan 24
Last Quarter
Jan 30
New
Feb 6
First Quarter

Hourly Weather History & Observations

Time (EST) Temp. Windchill Dew Point Humidity Pressure Visibility Wind Dir Wind Speed Gust Speed Precip Events Conditions
12:56 AM 46.0 °F 40.6 °F 42.1 °F 86% 29.90 in 10.0 mi South 11.5 mph - N/A   Clear
1:56 AM 46.0 °F 41.4 °F 42.1 °F 86% 29.88 in 10.0 mi SSW 9.2 mph - 0.01 in   Clear
2:56 AM 46.9 °F - 43.0 °F 86% 29.86 in 10.0 mi South 10.4 mph - N/A   Clear
3:56 AM 46.9 °F - 42.1 °F 83% 29.85 in 10.0 mi SSW 11.5 mph 18.4 mph N/A   Clear
4:56 AM 46.9 °F - 41.0 °F 80% 29.85 in 10.0 mi SSW 10.4 mph - N/A   Partly Cloudy
5:56 AM 46.9 °F - 39.9 °F 77% 29.85 in 10.0 mi SW 8.1 mph - 0.00 in Rain Light Rain
6:56 AM 46.0 °F 42.5 °F 39.9 °F 79% 29.83 in 10.0 mi South 6.9 mph - 0.01 in Rain Light Rain
7:56 AM 46.0 °F 41.4 °F 42.1 °F 86% 29.85 in 5.0 mi SSW 9.2 mph - 0.06 in Rain Light Rain
8:56 AM 46.0 °F 40.6 °F 43.0 °F 89% 29.84 in 2.0 mi South 11.5 mph - 0.08 in Rain Light Rain
9:41 AM 46.4 °F 43.5 °F 44.6 °F 93% 29.82 in 2.0 mi South 5.8 mph - 0.04 in Rain Light Rain
9:56 AM 46.9 °F - 44.1 °F 90% 29.81 in 2.0 mi South 5.8 mph - 0.06 in Rain Light Rain
10:56 AM 46.9 °F - 45.0 °F 93% 29.78 in 2.0 mi South 5.8 mph - 0.05 in Rain Light Rain
11:17 AM 46.4 °F 42.4 °F 44.6 °F 93% 29.77 in 1.5 mi South 8.1 mph - 0.03 in Rain Light Rain
11:56 AM 46.9 °F - 45.0 °F 93% 29.75 in 0.5 mi SSE 5.8 mph - 0.07 in Rain Light Rain
12:56 PM 48.0 °F - 46.0 °F 93% 29.72 in 0.5 mi South 9.2 mph - 0.07 in Rain Light Rain
1:54 PM 48.2 °F - 46.4 °F 93% 29.67 in 1.0 mi SW 5.8 mph - 0.10 in Rain Light Rain
1:56 PM 48.0 °F - 46.0 °F 93% 29.68 in 1.0 mi SW 5.8 mph - 0.11 in Rain Light Rain
2:24 PM 48.2 °F - 46.4 °F 93% 29.67 in 3.0 mi SW 8.1 mph - 0.02 in Rain Light Rain
2:56 PM 48.0 °F - 46.0 °F 93% 29.66 in 3.0 mi WSW 4.6 mph - 0.05 in Rain Light Rain
3:11 PM 48.2 °F - 46.4 °F 93% 29.65 in 1.5 mi Calm Calm - 0.03 in Rain Light Rain
3:56 PM 46.9 °F - 45.0 °F 93% 29.67 in 1.0 mi WNW 6.9 mph - 0.11 in Rain Rain
4:56 PM 46.9 °F - 45.0 °F 93% 29.66 in 2.0 mi NW 10.4 mph - 0.07 in Rain Light Rain
5:56 PM 46.0 °F 41.0 °F 44.1 °F 93% 29.67 in 2.0 mi WNW 10.4 mph - 0.01 in Rain Light Rain
6:17 PM 46.4 °F 41.9 °F 42.8 °F 87% 29.66 in 5.0 mi NW 9.2 mph - 0.02 in Rain Light Rain
6:56 PM 46.0 °F 43.1 °F 43.0 °F 89% 29.70 in 10.0 mi NW 5.8 mph - 0.02 in   Overcast
7:56 PM 45.0 °F 40.6 °F 43.0 °F 93% 29.71 in 10.0 mi West 8.1 mph - 0.00 in   Mostly Cloudy
8:56 PM 45.0 °F 40.1 °F 42.1 °F 90% 29.78 in 10.0 mi West 9.2 mph - 0.00 in Rain Light Rain
9:56 PM 45.0 °F 40.1 °F 42.1 °F 90% 29.81 in 10.0 mi West 9.2 mph - 0.01 in   Mostly Cloudy
10:56 PM 43.0 °F 41.3 °F 39.9 °F 89% 29.81 in 10.0 mi West 3.5 mph - N/A   Clear
11:56 PM 39.0 °F 36.8 °F 37.9 °F 96% 29.82 in 4.0 mi West 3.5 mph - N/A   Clear